Time,TemperatureF,DewpointF,PressureIn,WindDirection,WindDirectionDegrees,WindSpeedMPH,WindSpeedGustMPH,Humidity,HourlyPrecipIn,Conditions,Clouds,dailyrainin,SoftwareType,DateUTC
2013-06-17 00:02:00,74.0,73.0,29.91,SSE,153,0.0,0.0,96,0.00,,,0.45,,2013-06-17 05:02:00,
2013-06-17 00:12:00,74.0,73.0,29.91,SSE,153,0.0,0.0,96,0.00,,,0.45,,2013-06-17 05:12:00,
2013-06-17 00:22:00,74.0,73.0,29.91,SSE,153,0.0,0.0,96,0.00,,,0.45,,2013-06-17 05:22:00,
2013-06-17 00:33:00,74.0,73.0,29.91,SSE,153,0.0,0.0,97,0.00,,,0.45,,2013-06-17 05:33:00,
2013-06-17 00:44:00,73.0,72.0,29.91,SSE,153,0.0,0.0,97,0.00,,,0.45,,2013-06-17 05:44:00,
2013-06-17 00:53:00,73.0,72.0,29.91,SSE,153,0.0,0.0,97,0.00,,,0.45,,2013-06-17 05:53:00,
2013-06-17 01:02:00,73.0,72.0,29.91,SSE,153,0.0,0.0,97,0.00,,,0.45,,2013-06-17 06:02:00,
2013-06-17 01:12:00,73.0,72.0,29.91,SSE,153,0.0,0.0,97,0.00,,,0.45,,2013-06-17 06:12:00,
2013-06-17 01:22:00,73.0,72.0,29.91,SSE,153,0.0,0.0,97,0.00,,,0.45,,2013-06-17 06:22:00,
2013-06-17 01:33:00,73.0,72.0,29.91,SSE,153,0.0,0.0,98,0.00,,,0.45,,2013-06-17 06:33:00,
2013-06-17 01:43:00,73.0,72.0,29.91,SSE,153,0.0,0.0,98,0.00,,,0.45,,2013-06-17 06:43:00,
2013-06-17 01:53:00,73.0,72.0,29.91,SSE,153,0.0,0.0,98,0.00,,,0.45,,2013-06-17 06:53:00,
2013-06-17 02:02:00,73.0,72.0,29.91,SSE,153,0.0,0.0,98,0.00,,,0.45,,2013-06-17 07:02:00,
2013-06-17 02:12:00,73.0,72.0,29.91,SSE,153,0.0,0.0,98,0.00,,,0.45,,2013-06-17 07:12:00,
2013-06-17 02:22:00,73.0,72.0,29.91,SSE,153,0.0,0.0,98,0.00,,,0.45,,2013-06-17 07:22:00,
2013-06-17 02:33:00,73.0,72.0,29.91,SSE,153,0.0,0.0,98,0.00,,,0.45,,2013-06-17 07:33:00,
2013-06-17 02:43:00,73.0,72.0,29.91,SSE,153,0.0,0.0,98,0.00,,,0.45,,2013-06-17 07:43:00,
2013-06-17 02:53:00,73.0,72.0,29.91,SSE,153,0.0,0.0,98,0.00,,,0.45,,2013-06-17 07:53:00,
2013-06-17 03:02:00,73.0,72.0,29.91,SSE,153,0.0,0.0,98,0.00,,,0.45,,2013-06-17 08:02:00,
2013-06-17 03:11:00,72.0,71.0,29.91,SSE,153,0.0,0.0,98,0.00,,,0.45,,2013-06-17 08:11:00,
2013-06-17 03:22:00,72.0,71.0,29.91,SSE,153,0.0,0.0,98,0.00,,,0.45,,2013-06-17 08:22:00,
2013-06-17 03:34:00,72.0,71.0,29.90,SSE,153,0.0,0.0,98,0.00,,,0.45,,2013-06-17 08:34:00,
2013-06-17 03:43:00,72.0,71.0,29.91,SSE,153,0.0,0.0,98,0.00,,,0.45,,2013-06-17 08:43:00,
2013-06-17 03:53:00,72.0,71.0,29.91,SSE,153,0.0,0.0,98,0.00,,,0.45,,2013-06-17 08:53:00,
2013-06-17 04:02:00,72.0,71.0,29.90,North,360,0.0,0.0,98,0.00,,,0.45,,2013-06-17 09:02:00,
2013-06-17 04:11:00,71.0,69.0,29.90,NNW,328,0.0,0.0,95,0.00,,,0.45,,2013-06-17 09:11:00,
2013-06-17 04:22:00,71.0,69.0,29.90,NNW,328,0.0,0.0,95,0.00,,,0.45,,2013-06-17 09:22:00,
2013-06-17 04:34:00,70.0,68.0,29.90,NW,319,0.0,0.0,94,0.00,,,0.45,,2013-06-17 09:34:00,
2013-06-17 04:43:00,69.0,68.0,29.89,NW,319,0.0,0.0,95,0.00,,,0.45,,2013-06-17 09:43:00,
2013-06-17 04:52:00,69.0,68.0,29.89,NW,319,0.0,0.0,95,0.00,,,0.45,,2013-06-17 09:52:00,
2013-06-17 05:02:00,69.0,68.0,29.89,NW,319,0.0,0.0,96,0.00,,,0.45,,2013-06-17 10:02:00,
2013-06-17 05:12:00,68.0,67.0,29.89,NW,319,0.0,0.0,96,0.00,,,0.45,,2013-06-17 10:12:00,
2013-06-17 05:22:00,68.0,67.0,29.89,NW,319,0.0,0.0,96,0.00,,,0.45,,2013-06-17 10:22:00,
2013-06-17 05:33:00,68.0,67.0,29.90,NW,319,0.0,0.0,97,0.00,,,0.45,,2013-06-17 10:33:00,
2013-06-17 05:43:00,68.0,67.0,29.91,NW,319,0.0,0.0,97,0.00,,,0.45,,2013-06-17 10:43:00,
2013-06-17 05:53:00,68.0,67.0,29.91,NW,319,0.0,0.0,97,0.00,,,0.45,,2013-06-17 10:53:00,
2013-06-17 06:02:00,68.0,67.0,29.91,NW,319,0.0,0.0,98,0.00,,,0.45,,2013-06-17 11:02:00,
2013-06-17 06:12:00,68.0,67.0,29.91,NW,319,0.0,0.0,98,0.00,,,0.45,,2013-06-17 11:12:00,
2013-06-17 06:23:00,68.0,67.0,29.91,NW,319,0.0,0.0,98,0.00,,,0.45,,2013-06-17 11:23:00,
2013-06-17 06:33:00,68.0,67.0,29.91,NW,319,0.0,0.0,98,0.00,,,0.45,,2013-06-17 11:33:00,
2013-06-17 06:43:00,68.0,67.0,29.90,NW,318,0.0,0.0,98,0.00,,,0.44,,2013-06-17 11:43:00,
2013-06-17 06:53:00,68.0,67.0,29.90,NW,318,0.0,0.0,98,0.00,,,0.44,,2013-06-17 11:53:00,
2013-06-17 07:02:00,69.0,68.0,29.91,NW,319,0.0,0.0,98,0.00,,,0.44,,2013-06-17 12:02:00,
2013-06-17 07:12:00,69.0,68.0,29.90,NW,325,0.0,0.0,98,0.00,,,0.44,,2013-06-17 12:12:00,
2013-06-17 07:22:00,69.0,68.0,29.90,NW,325,0.0,0.0,98,0.00,,,0.44,,2013-06-17 12:22:00,
2013-06-17 07:33:00,70.0,70.0,29.91,NW,325,0.0,0.0,99,0.00,,,0.44,,2013-06-17 12:33:00,
2013-06-17 07:43:00,71.0,71.0,29.91,NW,325,0.0,0.0,99,0.00,,,0.28,,2013-06-17 12:43:00,
2013-06-17 07:53:00,71.0,71.0,29.91,NW,325,0.0,0.0,99,0.00,,,0.28,,2013-06-17 12:53:00,
2013-06-17 08:01:00,71.0,70.0,29.92,NW,325,0.0,0.0,98,0.00,,,0.28,,2013-06-17 13:01:00,
2013-06-17 08:12:00,72.0,71.0,29.92,NW,325,0.0,0.0,96,0.00,,,0.28,,2013-06-17 13:12:00,
2013-06-17 08:22:00,72.0,71.0,29.92,NW,325,0.0,0.0,96,0.00,,,0.28,,2013-06-17 13:22:00,
2013-06-17 08:32:00,74.0,72.0,29.91,NW,325,0.0,0.0,92,0.00,,,0.28,,2013-06-17 13:32:00,
2013-06-17 08:43:00,76.0,72.0,29.91,North,355,0.0,0.0,88,0.00,,,0.28,,2013-06-17 13:43:00,
2013-06-17 08:52:00,76.0,72.0,29.91,North,355,0.0,0.0,88,0.00,,,0.28,,2013-06-17 13:52:00,
2013-06-17 09:02:00,77.0,72.0,29.91,North,355,0.0,0.0,86,0.00,,,0.28,,2013-06-17 14:02:00,
2013-06-17 09:12:00,78.0,73.0,29.91,NNE,17,0.0,0.0,86,0.00,,,0.28,,2013-06-17 14:12:00,
2013-06-17 09:22:00,78.0,73.0,29.91,NNE,17,0.0,0.0,86,0.00,,,0.28,,2013-06-17 14:22:00,
2013-06-17 09:34:00,78.0,73.0,29.91,East,96,0.0,0.0,84,0.00,,,0.28,,2013-06-17 14:34:00,
2013-06-17 09:43:00,79.0,73.0,29.90,East,96,0.0,0.0,82,0.00,,,0.23,,2013-06-17 14:43:00,
2013-06-17 09:53:00,79.0,73.0,29.90,East,96,0.0,0.0,82,0.00,,,0.23,,2013-06-17 14:53:00,
2013-06-17 10:02:00,80.0,74.0,29.90,East,98,0.0,0.0,81,0.00,,,0.23,,2013-06-17 15:02:00,
2013-06-17 10:12:00,81.0,74.0,29.90,ESE,121,0.0,0.0,80,0.00,,,0.23,,2013-06-17 15:12:00,
2013-06-17 10:22:00,81.0,74.0,29.90,ESE,121,0.0,0.0,80,0.00,,,0.23,,2013-06-17 15:22:00,
2013-06-17 10:33:00,81.0,73.0,29.90,ESE,103,0.0,0.0,76,0.00,,,0.23,,2013-06-17 15:33:00,
2013-06-17 10:43:00,81.0,74.0,29.90,SE,127,0.0,0.0,79,0.00,,,0.10,,2013-06-17 15:43:00,
2013-06-17 10:52:00,81.0,74.0,29.90,SE,127,0.0,0.0,79,0.00,,,0.10,,2013-06-17 15:52:00,
2013-06-17 11:02:00,82.0,74.0,29.90,ESE,108,0.0,0.0,77,0.00,,,0.10,,2013-06-17 16:02:00,
2013-06-17 11:12:00,82.0,74.0,29.90,NE,56,0.0,0.0,76,0.00,,,0.10,,2013-06-17 16:12:00,
2013-06-17 11:22:00,82.0,74.0,29.90,NE,56,0.0,0.0,76,0.00,,,0.10,,2013-06-17 16:22:00,
2013-06-17 11:33:00,82.0,74.0,29.90,NE,56,0.0,0.0,76,0.00,,,0.10,,2013-06-17 16:33:00,
2013-06-17 11:43:00,83.0,73.0,29.91,East,90,0.0,0.0,73,0.00,,,0.10,,2013-06-17 16:43:00,
2013-06-17 11:53:00,83.0,73.0,29.91,East,90,0.0,0.0,73,0.00,,,0.10,,2013-06-17 16:53:00,
2013-06-17 12:02:00,83.0,73.0,29.91,ESE,114,0.0,0.0,73,0.00,,,0.10,,2013-06-17 17:02:00,
2013-06-17 12:12:00,83.0,74.0,29.90,East,95,0.0,0.0,74,0.00,,,0.10,,2013-06-17 17:12:00,
2013-06-17 12:22:00,83.0,74.0,29.90,East,95,0.0,0.0,74,0.00,,,0.10,,2013-06-17 17:22:00,
2013-06-17 12:33:00,84.0,74.0,29.90,East,101,0.0,0.0,73,0.00,,,0.10,,2013-06-17 17:33:00,
2013-06-17 12:43:00,84.0,74.0,29.90,ESE,103,0.0,0.0,71,0.00,,,0.09,,2013-06-17 17:43:00,
2013-06-17 12:52:00,84.0,74.0,29.90,ESE,103,0.0,0.0,71,0.00,,,0.09,,2013-06-17 17:52:00,
2013-06-17 13:02:00,85.0,74.0,29.89,SSE,150,0.0,0.0,69,0.00,,,0.09,,2013-06-17 18:02:00,
2013-06-17 13:12:00,85.0,74.0,29.89,SSE,150,0.0,0.0,69,0.00,,,0.09,,2013-06-17 18:12:00,
2013-06-17 13:23:00,85.0,74.0,29.89,SSE,150,0.0,0.0,69,0.00,,,0.09,,2013-06-17 18:23:00,
2013-06-17 13:33:00,85.0,71.0,29.88,West,273,0.0,0.0,64,0.00,,,0.09,,2013-06-17 18:33:00,
2013-06-17 13:43:00,86.0,74.0,29.88,NW,321,0.0,0.0,68,0.00,,,0.09,,2013-06-17 18:43:00,
2013-06-17 13:53:00,86.0,74.0,29.88,NW,321,0.0,0.0,68,0.00,,,0.09,,2013-06-17 18:53:00,
2013-06-17 14:02:00,85.0,73.0,29.87,NE,51,0.0,0.0,67,0.00,,,0.09,,2013-06-17 19:02:00,
2013-06-17 14:11:00,85.0,74.0,29.85,NE,51,0.0,0.0,69,0.00,,,0.09,,2013-06-17 19:11:00,
2013-06-17 14:22:00,85.0,74.0,29.85,NE,51,0.0,0.0,69,0.00,,,0.09,,2013-06-17 19:22:00,
2013-06-17 14:33:00,84.0,73.0,29.84,NE,51,0.0,0.0,70,0.00,,,0.09,,2013-06-17 19:33:00,
2013-06-17 14:43:00,84.0,73.0,29.83,North,355,0.0,0.0,69,0.00,,,0.09,,2013-06-17 19:43:00,
2013-06-17 14:53:00,84.0,73.0,29.83,North,355,0.0,0.0,69,0.00,,,0.09,,2013-06-17 19:53:00,
2013-06-17 15:02:00,84.0,73.0,29.84,SSW,208,0.0,0.0,70,0.00,,,0.09,,2013-06-17 20:02:00,
2013-06-17 15:11:00,83.0,70.0,29.85,ENE,75,0.0,0.0,65,0.00,,,0.09,,2013-06-17 20:11:00,
2013-06-17 15:22:00,83.0,70.0,29.85,ENE,75,0.0,0.0,65,0.00,,,0.09,,2013-06-17 20:22:00,
2013-06-17 15:52:00,73.0,63.0,29.90,NNE,12,0.0,0.0,72,0.00,,,0.09,,2013-06-17 20:52:00,
2013-06-17 16:01:00,69.0,66.0,29.94,NW,309,0.0,0.0,89,0.28,,,0.38,,2013-06-17 21:01:00,
2013-06-17 16:12:00,68.0,66.0,29.91,SE,126,0.0,0.0,93,0.63,,,0.72,,2013-06-17 21:12:00,
2013-06-17 16:22:00,68.0,66.0,29.91,SE,126,0.0,0.0,93,0.63,,,0.72,,2013-06-17 21:22:00,
2013-06-17 16:33:00,68.0,67.0,29.89,SSE,165,0.0,0.0,95,0.74,,,0.83,,2013-06-17 21:33:00,
2013-06-17 16:43:00,68.0,67.0,29.90,ESE,119,0.0,0.0,96,0.74,,,0.84,,2013-06-17 21:43:00,
2013-06-17 16:52:00,68.0,67.0,29.90,ESE,119,0.0,0.0,96,0.74,,,0.84,,2013-06-17 21:52:00,
2013-06-17 17:01:00,68.0,67.0,29.90,SE,144,0.0,0.0,96,0.48,,,0.86,,2013-06-17 22:01:00,
2013-06-17 17:11:00,68.0,67.0,29.91,SE,124,0.0,0.0,97,0.13,,,0.86,,2013-06-17 22:11:00,
2013-06-17 17:22:00,68.0,67.0,29.91,SE,124,0.0,0.0,97,0.13,,,0.86,,2013-06-17 22:22:00,
2013-06-17 17:33:00,68.0,67.0,29.91,ESE,103,0.0,0.0,97,0.05,,,0.88,,2013-06-17 22:33:00,
2013-06-17 17:43:00,68.0,67.0,29.92,ESE,104,0.0,0.0,97,0.06,,,0.90,,2013-06-17 22:43:00,
2013-06-17 17:53:00,68.0,67.0,29.92,ESE,104,0.0,0.0,97,0.06,,,0.90,,2013-06-17 22:53:00,
2013-06-17 18:02:00,68.0,67.0,29.93,South,190,0.0,0.0,97,0.06,,,0.92,,2013-06-17 23:02:00,
2013-06-17 18:11:00,68.0,67.0,29.93,South,191,0.0,0.0,97,0.08,,,0.94,,2013-06-17 23:11:00,
2013-06-17 18:22:00,68.0,67.0,29.93,South,191,0.0,0.0,97,0.08,,,0.94,,2013-06-17 23:22:00,
2013-06-17 18:32:00,68.0,67.0,29.92,South,190,0.0,0.0,97,0.09,,,0.97,,2013-06-17 23:32:00,
2013-06-17 18:42:00,68.0,67.0,29.92,East,86,0.0,0.0,97,0.09,,,1.00,,2013-06-17 23:42:00,
2013-06-17 18:53:00,68.0,67.0,29.92,East,86,0.0,0.0,97,0.09,,,1.00,,2013-06-17 23:53:00,
2013-06-17 19:01:00,68.0,67.0,29.92,SSE,151,0.0,0.0,97,0.11,,,1.03,,2013-06-18 00:01:00,
2013-06-17 19:12:00,67.0,66.0,29.92,SSE,156,0.0,0.0,97,0.11,,,1.05,,2013-06-18 00:12:00,
2013-06-17 19:22:00,67.0,66.0,29.92,SSE,156,0.0,0.0,97,0.11,,,1.05,,2013-06-18 00:22:00,
2013-06-17 19:33:00,67.0,66.0,29.92,SSE,166,0.0,0.0,97,0.09,,,1.06,,2013-06-18 00:33:00,
2013-06-17 19:43:00,67.0,66.0,29.91,SSE,159,0.0,0.0,97,0.06,,,1.06,,2013-06-18 00:43:00,
2013-06-17 19:52:00,67.0,66.0,29.91,SSE,159,0.0,0.0,97,0.06,,,1.06,,2013-06-18 00:52:00,
2013-06-17 20:01:00,67.0,66.0,29.91,SE,142,0.0,0.0,97,0.03,,,1.06,,2013-06-18 01:01:00,
2013-06-17 20:11:00,67.0,66.0,29.91,SE,142,0.0,0.0,97,0.01,,,1.06,,2013-06-18 01:11:00,
2013-06-17 20:23:00,67.0,66.0,29.91,SE,142,0.0,0.0,97,0.01,,,1.06,,2013-06-18 01:23:00,
2013-06-17 20:34:00,67.0,66.0,29.91,SE,142,0.0,0.0,97,0.00,,,1.06,,2013-06-18 01:34:00,
2013-06-17 20:44:00,67.0,66.0,29.91,SE,142,0.0,0.0,97,0.00,,,1.06,,2013-06-18 01:44:00,
2013-06-17 20:53:00,67.0,66.0,29.91,SE,142,0.0,0.0,97,0.00,,,1.06,,2013-06-18 01:53:00,
2013-06-17 21:02:00,67.0,66.0,29.91,SE,142,0.0,0.0,97,0.00,,,1.06,,2013-06-18 02:02:00,
2013-06-17 21:11:00,66.0,65.0,29.91,SE,142,0.0,0.0,97,0.00,,,1.06,,2013-06-18 02:11:00,
2013-06-17 21:22:00,66.0,65.0,29.91,SE,142,0.0,0.0,97,0.00,,,1.06,,2013-06-18 02:22:00,
2013-06-17 21:34:00,66.0,65.0,29.91,SE,142,0.0,0.0,97,0.00,,,1.06,,2013-06-18 02:34:00,
2013-06-17 21:43:00,66.0,65.0,29.91,SE,142,0.0,0.0,97,0.00,,,0.98,,2013-06-18 02:43:00,
2013-06-17 21:53:00,66.0,65.0,29.91,SE,142,0.0,0.0,97,0.00,,,0.98,,2013-06-18 02:53:00,
2013-06-17 22:02:00,66.0,65.0,29.91,SE,142,0.0,0.0,98,0.00,,,0.98,,2013-06-18 03:02:00,
2013-06-17 22:12:00,66.0,65.0,29.92,SE,142,0.0,0.0,98,0.00,,,0.98,,2013-06-18 03:12:00,
2013-06-17 22:23:00,66.0,65.0,29.92,SE,142,0.0,0.0,98,0.00,,,0.98,,2013-06-18 03:23:00,
2013-06-17 22:34:00,66.0,65.0,29.92,SE,142,0.0,0.0,98,0.00,,,0.98,,2013-06-18 03:34:00,
2013-06-17 22:43:00,66.0,65.0,29.91,SE,142,0.0,0.0,98,0.00,,,0.97,,2013-06-18 03:43:00,
2013-06-17 22:53:00,66.0,65.0,29.91,SE,142,0.0,0.0,98,0.00,,,0.97,,2013-06-18 03:53:00,
2013-06-17 23:02:00,66.0,65.0,29.91,SE,142,0.0,0.0,98,0.00,,,0.97,,2013-06-18 04:02:00,
2013-06-17 23:12:00,66.0,65.0,29.91,SE,142,0.0,0.0,98,0.00,,,0.97,,2013-06-18 04:12:00,
2013-06-17 23:23:00,66.0,65.0,29.91,SE,142,0.0,0.0,98,0.00,,,0.97,,2013-06-18 04:23:00,
2013-06-17 23:34:00,66.0,65.0,29.91,SE,142,0.0,0.0,98,0.00,,,0.97,,2013-06-18 04:34:00,
2013-06-17 23:43:00,66.0,65.0,29.91,SE,142,0.0,0.0,98,0.00,,,0.97,,2013-06-18 04:43:00,
2013-06-17 23:53:00,66.0,65.0,29.91,SE,142,0.0,0.0,98,0.00,,,0.97,,2013-06-18 04:53:00,